Time,TemperatureF,DewpointF,PressureIn,WindDirection,WindDirectionDegrees,WindSpeedMPH,WindSpeedGustMPH,Humidity,HourlyPrecipIn,Conditions,Clouds,dailyrainin,SoftwareType,DateUTC
2013-05-19 00:01:00,56.2,46.9,30.22,SW,222,0.0,0.0,71,0.00,,,0.00,WeatherCatV1.15B25,2013-05-19 04:01:00,
2013-05-19 00:06:00,56.0,46.7,30.22,WSW,239,2.0,2.0,71,0.00,,,0.00,WeatherCatV1.15B25,2013-05-19 04:06:00,
2013-05-19 00:11:00,55.9,47.0,30.22,SW,229,0.0,1.0,72,0.00,,,0.00,WeatherCatV1.15B25,2013-05-19 04:11:00,
2013-05-19 00:16:00,55.8,46.5,30.22,SW,236,0.0,4.0,71,0.00,,,0.00,WeatherCatV1.15B25,2013-05-19 04:16:00,
2013-05-19 00:21:00,55.8,46.9,30.22,SW,221,1.0,6.0,72,0.00,,,0.00,WeatherCatV1.15B25,2013-05-19 04:21:00,
2013-05-19 00:26:00,55.7,46.8,30.22,WSW,248,0.0,5.0,72,0.00,,,0.00,WeatherCatV1.15B25,2013-05-19 04:26:00,
2013-05-19 00:31:00,55.7,46.8,30.22,WSW,248,0.0,3.0,72,0.00,,,0.00,WeatherCatV1.15B25,2013-05-19 04:31:00,
2013-05-19 00:36:00,55.6,46.7,30.23,West,273,0.0,4.0,72,0.00,,,0.00,WeatherCatV1.15B25,2013-05-19 04:36:00,
2013-05-19 00:41:00,55.6,46.7,30.23,SW,235,0.0,6.0,72,0.00,,,0.00,WeatherCatV1.15B25,2013-05-19 04:41:00,
2013-05-19 00:46:00,55.5,47.0,30.23,SSW,206,0.0,6.0,73,0.00,,,0.00,WeatherCatV1.15B25,2013-05-19 04:46:00,
2013-05-19 00:51:00,55.4,46.9,30.23,WSW,242,0.0,4.0,73,0.00,,,0.00,WeatherCatV1.15B25,2013-05-19 04:51:00,
2013-05-19 00:56:00,55.2,46.7,30.23,West,267,0.0,6.0,73,0.00,,,0.00,WeatherCatV1.15B25,2013-05-19 04:56:00,
2013-05-19 01:01:00,55.1,47.0,30.23,WSW,250,1.0,1.0,74,0.00,,,0.00,WeatherCatV1.15B25,2013-05-19 05:01:00,
2013-05-19 01:06:00,55.0,46.9,30.23,WSW,242,1.0,4.0,74,0.00,,,0.00,WeatherCatV1.15B25,2013-05-19 05:06:00,
2013-05-19 01:11:00,54.8,47.0,30.23,West,260,0.0,1.0,75,0.00,,,0.00,WeatherCatV1.15B25,2013-05-19 05:11:00,
2013-05-19 01:16:00,54.7,46.9,30.22,West,267,0.0,7.0,75,0.00,,,0.00,WeatherCatV1.15B25,2013-05-19 05:16:00,
2013-05-19 01:21:00,54.6,47.2,30.22,SSW,209,0.0,1.0,76,0.00,,,0.00,WeatherCatV1.15B25,2013-05-19 05:21:00,
2013-05-19 01:26:00,54.5,47.1,30.22,WSW,251,0.0,1.0,76,0.00,,,0.00,WeatherCatV1.15B25,2013-05-19 05:26:00,
2013-05-19 01:31:00,54.4,47.0,30.22,West,277,0.0,4.0,76,0.00,,,0.00,WeatherCatV1.15B25,2013-05-19 05:31:00,
2013-05-19 01:36:00,54.4,47.3,30.22,WSW,255,0.0,1.0,77,0.00,,,0.00,WeatherCatV1.15B25,2013-05-19 05:36:00,
2013-05-19 01:41:00,54.3,47.2,30.22,WSW,242,0.0,1.0,77,0.00,,,0.00,WeatherCatV1.15B25,2013-05-19 05:41:00,
2013-05-19 01:46:00,54.1,47.4,30.23,WSW,245,0.0,3.0,78,0.00,,,0.00,WeatherCatV1.15B25,2013-05-19 05:46:00,
2013-05-19 01:51:00,54.0,47.3,30.23,WSW,238,0.0,0.0,78,0.00,,,0.00,WeatherCatV1.15B25,2013-05-19 05:51:00,
2013-05-19 01:56:00,53.9,47.2,30.23,WSW,238,0.0,0.0,78,0.00,,,0.00,WeatherCatV1.15B25,2013-05-19 05:56:00,
2013-05-19 02:01:00,53.7,47.3,30.23,WSW,258,0.0,0.0,79,0.00,,,0.00,WeatherCatV1.15B25,2013-05-19 06:01:00,
2013-05-19 02:06:00,53.5,47.1,30.23,West,267,0.0,2.0,79,0.00,,,0.00,WeatherCatV1.15B25,2013-05-19 06:06:00,
2013-05-19 02:11:00,53.3,47.3,30.23,SW,234,0.0,1.0,80,0.00,,,0.00,WeatherCatV1.15B25,2013-05-19 06:11:00,
2013-05-19 02:16:00,53.1,47.1,30.23,SW,234,0.0,0.0,80,0.00,,,0.00,WeatherCatV1.15B25,2013-05-19 06:16:00,
2013-05-19 02:21:00,53.0,47.3,30.23,SW,234,0.0,1.0,81,0.00,,,0.00,WeatherCatV1.15B25,2013-05-19 06:21:00,
2013-05-19 02:26:00,52.8,47.1,30.23,SW,234,0.0,0.0,81,0.00,,,0.00,WeatherCatV1.15B25,2013-05-19 06:26:00,
2013-05-19 02:31:00,52.7,47.0,30.23,SW,234,0.0,0.0,81,0.00,,,0.00,WeatherCatV1.15B25,2013-05-19 06:31:00,
2013-05-19 02:36:00,52.5,46.8,30.23,SW,234,0.0,0.0,81,0.00,,,0.00,WeatherCatV1.15B25,2013-05-19 06:36:00,
2013-05-19 02:41:00,52.3,47.0,30.23,SW,234,0.0,0.0,82,0.00,,,0.00,WeatherCatV1.15B25,2013-05-19 06:41:00,
2013-05-19 02:46:00,52.2,46.9,30.23,SW,234,0.0,0.0,82,0.00,,,0.00,WeatherCatV1.15B25,2013-05-19 06:46:00,
2013-05-19 02:51:00,52.0,47.0,30.23,SW,234,0.0,0.0,83,0.00,,,0.00,WeatherCatV1.15B25,2013-05-19 06:51:00,
2013-05-19 02:56:00,51.9,46.9,30.23,SW,234,0.0,0.0,83,0.00,,,0.00,WeatherCatV1.15B25,2013-05-19 06:56:00,
2013-05-19 03:01:00,51.7,46.7,30.24,SW,234,0.0,0.0,83,0.00,,,0.00,WeatherCatV1.15B25,2013-05-19 07:01:00,
2013-05-19 03:06:00,51.5,46.8,30.23,SW,234,0.0,0.0,84,0.00,,,0.00,WeatherCatV1.15B25,2013-05-19 07:06:00,
2013-05-19 03:11:00,51.4,46.7,30.23,SW,234,0.0,0.0,84,0.00,,,0.00,WeatherCatV1.15B25,2013-05-19 07:11:00,
2013-05-19 03:16:00,51.2,46.5,30.23,SW,234,0.0,0.0,84,0.00,,,0.00,WeatherCatV1.15B25,2013-05-19 07:16:00,
2013-05-19 03:21:00,51.1,46.4,30.23,SW,234,0.0,0.0,84,0.00,,,0.00,WeatherCatV1.15B25,2013-05-19 07:21:00,
2013-05-19 03:26:00,50.9,46.6,30.24,SW,234,0.0,0.0,85,0.00,,,0.00,WeatherCatV1.15B25,2013-05-19 07:26:00,
2013-05-19 03:31:00,50.8,46.5,30.24,SW,234,0.0,0.0,85,0.00,,,0.00,WeatherCatV1.15B25,2013-05-19 07:31:00,
2013-05-19 03:36:00,50.6,46.3,30.24,SW,234,0.0,0.0,85,0.00,,,0.00,WeatherCatV1.15B25,2013-05-19 07:36:00,
2013-05-19 03:41:00,50.5,46.2,30.24,SW,234,0.0,0.0,85,0.00,,,0.00,WeatherCatV1.15B25,2013-05-19 07:41:00,
2013-05-19 03:46:00,50.3,46.3,30.24,SW,234,0.0,0.0,86,0.00,,,0.00,WeatherCatV1.15B25,2013-05-19 07:46:00,
2013-05-19 03:51:00,50.1,46.1,30.24,SW,234,0.0,0.0,86,0.00,,,0.00,WeatherCatV1.15B25,2013-05-19 07:51:00,
2013-05-19 03:56:00,50.0,46.3,30.24,SW,234,0.0,0.0,87,0.00,,,0.00,WeatherCatV1.15B25,2013-05-19 07:56:00,
2013-05-19 04:01:00,49.8,46.1,30.24,SW,234,0.0,0.0,87,0.00,,,0.00,WeatherCatV1.15B25,2013-05-19 08:01:00,
2013-05-19 04:06:00,49.7,46.0,30.24,SW,234,0.0,0.0,87,0.00,,,0.00,WeatherCatV1.15B25,2013-05-19 08:06:00,
2013-05-19 04:11:00,49.6,45.9,30.24,SW,234,0.0,0.0,87,0.00,,,0.00,WeatherCatV1.15B25,2013-05-19 08:11:00,
2013-05-19 04:16:00,49.4,46.0,30.24,SW,234,0.0,0.0,88,0.00,,,0.00,WeatherCatV1.15B25,2013-05-19 08:16:00,
2013-05-19 04:21:00,49.3,45.9,30.24,SW,234,0.0,0.0,88,0.00,,,0.00,WeatherCatV1.15B25,2013-05-19 08:21:00,
2013-05-19 04:26:00,49.1,45.7,30.24,SW,234,0.0,0.0,88,0.00,,,0.00,WeatherCatV1.15B25,2013-05-19 08:26:00,
2013-05-19 04:31:00,49.0,45.9,30.24,SW,234,0.0,0.0,89,0.00,,,0.00,WeatherCatV1.15B25,2013-05-19 08:31:00,
2013-05-19 04:36:00,48.9,45.8,30.24,SW,234,0.0,0.0,89,0.00,,,0.00,WeatherCatV1.15B25,2013-05-19 08:36:00,
2013-05-19 04:41:00,48.8,45.7,30.24,SW,234,0.0,0.0,89,0.00,,,0.00,WeatherCatV1.15B25,2013-05-19 08:41:00,
2013-05-19 04:46:00,48.8,45.7,30.25,SW,234,0.0,0.0,89,0.00,,,0.00,WeatherCatV1.15B25,2013-05-19 08:46:00,
2013-05-19 04:51:00,48.8,45.7,30.25,SW,234,0.0,0.0,89,0.00,,,0.00,WeatherCatV1.15B25,2013-05-19 08:51:00,
2013-05-19 04:56:00,48.8,45.7,30.25,SW,234,0.0,0.0,89,0.00,,,0.00,WeatherCatV1.15B25,2013-05-19 08:56:00,
2013-05-19 05:01:00,48.7,45.6,30.25,SW,234,0.0,0.0,89,0.00,,,0.00,WeatherCatV1.15B25,2013-05-19 09:01:00,
2013-05-19 05:06:00,48.6,45.5,30.25,SW,234,0.0,0.0,89,0.00,,,0.00,WeatherCatV1.15B25,2013-05-19 09:06:00,
2013-05-19 05:11:00,48.6,45.5,30.25,SW,234,0.0,0.0,89,0.00,,,0.00,WeatherCatV1.15B25,2013-05-19 09:11:00,
2013-05-19 05:16:00,48.4,45.3,30.25,SW,234,0.0,0.0,89,0.00,,,0.00,WeatherCatV1.15B25,2013-05-19 09:16:00,
2013-05-19 05:21:00,48.3,45.5,30.26,SW,234,0.0,0.0,90,0.00,,,0.00,WeatherCatV1.15B25,2013-05-19 09:21:00,
2013-05-19 05:26:00,48.3,45.5,30.26,SW,234,0.0,0.0,90,0.00,,,0.00,WeatherCatV1.15B25,2013-05-19 09:26:00,
2013-05-19 05:31:00,48.4,45.9,30.26,SW,234,0.0,0.0,91,0.00,,,0.00,WeatherCatV1.15B25,2013-05-19 09:31:00,
2013-05-19 05:36:00,48.6,45.8,30.26,SW,234,0.0,0.0,90,0.00,,,0.00,WeatherCatV1.15B25,2013-05-19 09:36:00,
2013-05-19 05:41:00,48.6,45.8,30.26,SW,234,0.0,0.0,90,0.00,,,0.00,WeatherCatV1.15B25,2013-05-19 09:41:00,
2013-05-19 05:46:00,48.6,45.8,30.26,SW,234,0.0,0.0,90,0.00,,,0.00,WeatherCatV1.15B25,2013-05-19 09:46:00,
2013-05-19 05:51:00,48.5,45.7,30.26,SW,234,0.0,0.0,90,0.00,,,0.00,WeatherCatV1.15B25,2013-05-19 09:51:00,
2013-05-19 05:56:00,48.5,45.7,30.27,SW,234,0.0,0.0,90,0.00,,,0.00,WeatherCatV1.15B25,2013-05-19 09:56:00,
2013-05-19 06:01:00,48.5,45.7,30.27,SW,234,0.0,0.0,90,0.00,,,0.00,WeatherCatV1.15B25,2013-05-19 10:01:00,
2013-05-19 06:06:00,48.5,45.7,30.27,SW,234,0.0,0.0,90,0.00,,,0.00,WeatherCatV1.15B25,2013-05-19 10:06:00,
2013-05-19 06:11:00,48.6,46.1,30.27,SW,234,0.0,0.0,91,0.00,,,0.00,WeatherCatV1.15B25,2013-05-19 10:11:00,
2013-05-19 06:16:00,48.7,46.2,30.27,SW,234,0.0,0.0,91,0.00,,,0.00,WeatherCatV1.15B25,2013-05-19 10:16:00,
2013-05-19 06:21:00,48.8,46.3,30.27,SW,234,0.0,0.0,91,0.00,,,0.00,WeatherCatV1.15B25,2013-05-19 10:21:00,
2013-05-19 06:26:00,49.1,46.6,30.27,SW,234,0.0,0.0,91,0.00,,,0.00,WeatherCatV1.15B25,2013-05-19 10:26:00,
2013-05-19 06:31:00,49.3,46.8,30.27,SW,234,0.0,0.0,91,0.00,,,0.00,WeatherCatV1.15B25,2013-05-19 10:31:00,
2013-05-19 06:36:00,49.6,47.1,30.27,SW,234,0.0,0.0,91,0.00,,,0.00,WeatherCatV1.15B25,2013-05-19 10:36:00,
2013-05-19 06:41:00,49.9,47.1,30.27,SW,234,0.0,0.0,90,0.00,,,0.00,WeatherCatV1.15B25,2013-05-19 10:41:00,
2013-05-19 06:46:00,50.1,47.0,30.28,SW,234,0.0,0.0,89,0.00,,,0.00,WeatherCatV1.15B25,2013-05-19 10:46:00,
2013-05-19 06:51:00,50.4,47.0,30.28,SW,234,0.0,0.0,88,0.00,,,0.00,WeatherCatV1.15B25,2013-05-19 10:51:00,
2013-05-19 06:56:00,50.8,47.4,30.28,SW,234,0.0,0.0,88,0.00,,,0.00,WeatherCatV1.15B25,2013-05-19 10:56:00,
2013-05-19 07:01:00,51.2,47.8,30.28,SW,234,0.0,0.0,88,0.00,,,0.00,WeatherCatV1.15B25,2013-05-19 11:01:00,
2013-05-19 07:06:00,51.8,48.1,30.28,SW,234,0.0,0.0,87,0.00,,,0.00,WeatherCatV1.15B25,2013-05-19 11:06:00,
2013-05-19 07:11:00,52.3,47.6,30.28,SSW,211,0.0,1.0,84,0.00,,,0.00,WeatherCatV1.15B25,2013-05-19 11:11:00,
2013-05-19 07:16:00,52.9,47.9,30.28,SW,214,1.0,1.0,83,0.00,,,0.00,WeatherCatV1.15B25,2013-05-19 11:16:00,
2013-05-19 07:21:00,53.5,48.1,30.28,SSW,201,0.0,2.0,82,0.00,,,0.00,WeatherCatV1.15B25,2013-05-19 11:21:00,
2013-05-19 07:26:00,54.0,48.0,30.28,SW,232,0.0,1.0,80,0.00,,,0.00,WeatherCatV1.15B25,2013-05-19 11:26:00,
2013-05-19 07:31:00,54.4,48.0,30.28,WSW,239,0.0,0.0,79,0.00,,,0.00,WeatherCatV1.15B25,2013-05-19 11:31:00,
2013-05-19 07:36:00,55.0,48.6,30.28,SW,231,0.0,1.0,79,0.00,,,0.00,WeatherCatV1.15B25,2013-05-19 11:36:00,
2013-05-19 07:41:00,55.7,48.9,30.28,SW,231,0.0,0.0,78,0.00,,,0.00,WeatherCatV1.15B25,2013-05-19 11:41:00,
2013-05-19 07:46:00,56.3,48.8,30.28,SW,231,0.0,0.0,76,0.00,,,0.00,WeatherCatV1.15B25,2013-05-19 11:46:00,
2013-05-19 07:51:00,56.8,48.6,30.28,WSW,250,0.0,1.0,74,0.00,,,0.00,WeatherCatV1.15B25,2013-05-19 11:51:00,
2013-05-19 07:56:00,57.2,49.0,30.28,SW,226,0.0,0.0,74,0.00,,,0.00,WeatherCatV1.15B25,2013-05-19 11:56:00,
2013-05-19 08:01:00,57.4,48.8,30.28,SSE,166,0.0,0.0,73,0.00,,,0.00,WeatherCatV1.15B25,2013-05-19 12:01:00,
2013-05-19 08:06:00,57.7,49.1,30.28,SSE,167,0.0,0.0,73,0.00,,,0.00,WeatherCatV1.15B25,2013-05-19 12:06:00,
2013-05-19 08:11:00,58.0,48.6,30.28,SW,235,0.0,0.0,71,0.00,,,0.00,WeatherCatV1.15B25,2013-05-19 12:11:00,
2013-05-19 08:16:00,58.1,48.7,30.28,SW,224,0.0,0.0,71,0.00,,,0.00,WeatherCatV1.15B25,2013-05-19 12:16:00,
2013-05-19 08:21:00,58.5,49.1,30.28,SW,225,0.0,0.0,71,0.00,,,0.00,WeatherCatV1.15B25,2013-05-19 12:21:00,
2013-05-19 08:26:00,58.9,49.1,30.28,SW,225,0.0,1.0,70,0.00,,,0.00,WeatherCatV1.15B25,2013-05-19 12:26:00,
2013-05-19 08:31:00,59.4,49.6,30.28,SSW,211,0.0,2.0,70,0.00,,,0.00,WeatherCatV1.15B25,2013-05-19 12:31:00,
2013-05-19 08:36:00,59.7,49.1,30.28,SSW,211,0.0,0.0,68,0.00,,,0.00,WeatherCatV1.15B25,2013-05-19 12:36:00,
2013-05-19 08:41:00,60.2,49.2,30.28,SSW,211,1.0,2.0,67,0.00,,,0.00,WeatherCatV1.15B25,2013-05-19 12:41:00,
2013-05-19 08:46:00,60.7,49.3,30.28,NW,322,0.0,0.0,66,0.00,,,0.00,WeatherCatV1.15B25,2013-05-19 12:46:00,
2013-05-19 08:51:00,61.5,50.0,30.28,WSW,240,0.0,2.0,66,0.00,,,0.00,WeatherCatV1.15B25,2013-05-19 12:51:00,
2013-05-19 08:56:00,62.1,51.4,30.28,ESE,114,0.0,2.0,68,0.00,,,0.00,WeatherCatV1.15B25,2013-05-19 12:56:00,
2013-05-19 09:01:00,62.3,51.6,30.28,NNE,28,0.0,1.0,68,0.00,,,0.00,WeatherCatV1.15B25,2013-05-19 13:01:00,
2013-05-19 09:06:00,62.6,51.1,30.28,SE,126,0.0,3.0,66,0.00,,,0.00,WeatherCatV1.15B25,2013-05-19 13:06:00,
2013-05-19 09:11:00,62.2,51.1,30.28,East,89,0.0,0.0,67,0.00,,,0.00,WeatherCatV1.15B25,2013-05-19 13:11:00,
2013-05-19 09:16:00,62.3,50.4,30.28,SE,139,0.0,2.0,65,0.00,,,0.00,WeatherCatV1.15B25,2013-05-19 13:16:00,
2013-05-19 09:21:00,62.7,50.3,30.28,NW,322,0.0,1.0,64,0.00,,,0.00,WeatherCatV1.15B25,2013-05-19 13:21:00,
2013-05-19 09:26:00,63.3,50.5,30.28,SW,229,0.0,3.0,63,0.00,,,0.00,WeatherCatV1.15B25,2013-05-19 13:26:00,
2013-05-19 09:31:00,63.6,50.8,30.28,South,179,0.0,4.0,63,0.00,,,0.00,WeatherCatV1.15B25,2013-05-19 13:31:00,
2013-05-19 09:36:00,63.7,51.3,30.29,SW,225,0.0,0.0,64,0.00,,,0.00,WeatherCatV1.15B25,2013-05-19 13:36:00,
2013-05-19 09:41:00,63.9,51.1,30.28,ESE,122,1.0,2.0,63,0.00,,,0.00,WeatherCatV1.15B25,2013-05-19 13:41:00,
2013-05-19 09:46:00,63.9,50.6,30.28,WSW,248,3.0,6.0,62,0.00,,,0.00,WeatherCatV1.15B25,2013-05-19 13:46:00,
2013-05-19 09:51:00,63.9,50.6,30.28,South,169,1.0,3.0,62,0.00,,,0.00,WeatherCatV1.15B25,2013-05-19 13:51:00,
2013-05-19 09:56:00,64.4,51.1,30.28,SSE,165,4.0,5.0,62,0.00,,,0.00,WeatherCatV1.15B25,2013-05-19 13:56:00,
2013-05-19 10:01:00,64.4,50.7,30.28,West,278,0.0,5.0,61,0.00,,,0.00,WeatherCatV1.15B25,2013-05-19 14:01:00,
2013-05-19 10:06:00,64.4,50.7,30.28,SW,215,0.0,2.0,61,0.00,,,0.00,WeatherCatV1.15B25,2013-05-19 14:06:00,
2013-05-19 10:11:00,65.2,51.4,30.28,SSW,207,0.0,0.0,61,0.00,,,0.00,WeatherCatV1.15B25,2013-05-19 14:11:00,
2013-05-19 10:16:00,66.1,51.3,30.28,SW,236,2.0,3.0,59,0.00,,,0.00,WeatherCatV1.15B25,2013-05-19 14:16:00,
2013-05-19 10:21:00,66.3,51.1,30.27,SE,135,0.0,2.0,58,0.00,,,0.00,WeatherCatV1.15B25,2013-05-19 14:21:00,
2013-05-19 10:26:00,66.2,50.0,30.28,WSW,240,0.0,8.0,56,0.00,,,0.00,WeatherCatV1.15B25,2013-05-19 14:26:00,
2013-05-19 10:31:00,66.0,51.3,30.28,ESE,119,2.0,3.0,59,0.00,,,0.00,WeatherCatV1.15B25,2013-05-19 14:31:00,
2013-05-19 10:36:00,66.6,51.4,30.28,South,180,0.0,1.0,58,0.00,,,0.00,WeatherCatV1.15B25,2013-05-19 14:36:00,
2013-05-19 10:41:00,67.4,51.1,30.28,SW,214,0.0,4.0,56,0.00,,,0.00,WeatherCatV1.15B25,2013-05-19 14:41:00,
2013-05-19 10:46:00,67.2,50.5,30.28,East,86,0.0,2.0,55,0.00,,,0.00,WeatherCatV1.15B25,2013-05-19 14:46:00,
2013-05-19 10:51:00,67.0,50.8,30.27,SW,235,1.0,1.0,56,0.00,,,0.00,WeatherCatV1.15B25,2013-05-19 14:51:00,
2013-05-19 10:56:00,67.4,50.2,30.27,SSE,150,1.0,2.0,54,0.00,,,0.00,WeatherCatV1.15B25,2013-05-19 14:56:00,
2013-05-19 11:01:00,67.6,49.8,30.27,ENE,68,0.0,3.0,53,0.00,,,0.00,WeatherCatV1.15B25,2013-05-19 15:01:00,
2013-05-19 11:06:00,67.5,50.8,30.27,West,261,7.0,7.0,55,0.00,,,0.00,WeatherCatV1.15B25,2013-05-19 15:06:00,
2013-05-19 11:11:00,67.4,49.2,30.27,West,261,0.0,5.0,52,0.00,,,0.00,WeatherCatV1.15B25,2013-05-19 15:11:00,
2013-05-19 11:16:00,66.8,49.6,30.27,WSW,246,1.0,8.0,54,0.00,,,0.00,WeatherCatV1.15B25,2013-05-19 15:16:00,
2013-05-19 11:21:00,66.8,49.6,30.27,South,176,1.0,8.0,54,0.00,,,0.00,WeatherCatV1.15B25,2013-05-19 15:21:00,
2013-05-19 11:26:00,66.9,50.2,30.27,WSW,238,1.0,7.0,55,0.00,,,0.00,WeatherCatV1.15B25,2013-05-19 15:26:00,
2013-05-19 11:31:00,66.6,49.9,30.26,SE,138,0.0,2.0,55,0.00,,,0.00,WeatherCatV1.15B25,2013-05-19 15:31:00,
2013-05-19 11:36:00,66.7,51.0,30.27,West,261,0.0,0.0,57,0.00,,,0.00,WeatherCatV1.15B25,2013-05-19 15:36:00,
2013-05-19 11:41:00,67.0,53.1,30.27,East,79,0.0,0.0,61,0.00,,,0.00,WeatherCatV1.15B25,2013-05-19 15:41:00,
2013-05-19 11:46:00,67.1,53.6,30.26,NNE,15,0.0,2.0,62,0.00,,,0.00,WeatherCatV1.15B25,2013-05-19 15:46:00,
2013-05-19 11:51:00,66.7,53.7,30.26,ENE,69,0.0,2.0,63,0.00,,,0.00,WeatherCatV1.15B25,2013-05-19 15:51:00,
2013-05-19 11:56:00,66.7,54.1,30.26,ESE,120,2.0,4.0,64,0.00,,,0.00,WeatherCatV1.15B25,2013-05-19 15:56:00,
2013-05-19 12:01:00,66.7,54.1,30.26,ENE,61,0.0,1.0,64,0.00,,,0.00,WeatherCatV1.15B25,2013-05-19 16:01:00,
2013-05-19 12:06:00,67.2,53.7,30.25,NNE,19,2.0,6.0,62,0.00,,,0.00,WeatherCatV1.15B25,2013-05-19 16:06:00,
2013-05-19 12:11:00,66.8,53.8,30.26,NE,51,2.0,2.0,63,0.00,,,0.00,WeatherCatV1.15B25,2013-05-19 16:11:00,
2013-05-19 12:16:00,66.4,53.8,30.26,East,95,1.0,3.0,64,0.00,,,0.00,WeatherCatV1.15B25,2013-05-19 16:16:00,
2013-05-19 12:21:00,65.4,53.3,30.26,NE,36,0.0,3.0,65,0.00,,,0.00,WeatherCatV1.15B25,2013-05-19 16:21:00,
2013-05-19 12:26:00,64.6,53.0,30.26,NNE,23,0.0,4.0,66,0.00,,,0.00,WeatherCatV1.15B25,2013-05-19 16:26:00,
2013-05-19 12:31:00,64.2,53.4,30.25,NNE,13,5.0,5.0,68,0.00,,,0.00,WeatherCatV1.15B25,2013-05-19 16:31:00,
2013-05-19 12:36:00,64.1,53.3,30.25,NNE,18,0.0,5.0,68,0.00,,,0.00,WeatherCatV1.15B25,2013-05-19 16:36:00,
2013-05-19 12:41:00,63.4,52.6,30.25,NNE,15,0.0,5.0,68,0.00,,,0.00,WeatherCatV1.15B25,2013-05-19 16:41:00,
2013-05-19 12:46:00,63.0,52.3,30.26,NNE,26,0.0,1.0,68,0.00,,,0.00,WeatherCatV1.15B25,2013-05-19 16:46:00,
2013-05-19 12:51:00,62.6,52.3,30.25,NNE,16,2.0,3.0,69,0.00,,,0.00,WeatherCatV1.15B25,2013-05-19 16:51:00,
2013-05-19 12:56:00,62.4,52.1,30.25,NE,50,1.0,8.0,69,0.00,,,0.00,WeatherCatV1.15B25,2013-05-19 16:56:00,
2013-05-19 13:01:00,62.7,52.4,30.26,North,11,0.0,6.0,69,0.00,,,0.00,WeatherCatV1.15B25,2013-05-19 17:01:00,
2013-05-19 13:06:00,62.5,52.2,30.25,NNE,13,4.0,4.0,69,0.00,,,0.00,WeatherCatV1.15B25,2013-05-19 17:06:00,
2013-05-19 13:11:00,62.1,51.8,30.25,North,11,1.0,7.0,69,0.00,,,0.00,WeatherCatV1.15B25,2013-05-19 17:11:00,
2013-05-19 13:16:00,61.5,52.0,30.25,NNE,21,0.0,5.0,71,0.00,,,0.00,WeatherCatV1.15B25,2013-05-19 17:16:00,
2013-05-19 13:21:00,61.3,52.2,30.25,NNE,26,1.0,4.0,72,0.00,,,0.00,WeatherCatV1.15B25,2013-05-19 17:21:00,
2013-05-19 13:26:00,60.7,51.6,30.25,North,7,0.0,4.0,72,0.00,,,0.00,WeatherCatV1.15B25,2013-05-19 17:26:00,
2013-05-19 13:31:00,60.3,51.6,30.24,North,352,2.0,8.0,73,0.00,,,0.00,WeatherCatV1.15B25,2013-05-19 17:31:00,
2013-05-19 13:36:00,59.9,52.0,30.24,ESE,111,0.0,6.0,75,0.00,,,0.00,WeatherCatV1.15B25,2013-05-19 17:36:00,
2013-05-19 13:41:00,59.4,51.8,30.24,North,357,0.0,5.0,76,0.00,,,0.00,WeatherCatV1.15B25,2013-05-19 17:41:00,
2013-05-19 13:46:00,58.8,51.6,30.24,NNE,14,0.0,7.0,77,0.00,,,0.00,WeatherCatV1.15B25,2013-05-19 17:46:00,
2013-05-19 13:51:00,58.6,51.8,30.24,NNE,32,0.0,4.0,78,0.00,,,0.00,WeatherCatV1.15B25,2013-05-19 17:51:00,
2013-05-19 13:56:00,58.4,51.6,30.24,NNE,23,2.0,2.0,78,0.00,,,0.00,WeatherCatV1.15B25,2013-05-19 17:56:00,
2013-05-19 14:01:00,58.3,51.5,30.24,ESE,108,0.0,8.0,78,0.00,,,0.00,WeatherCatV1.15B25,2013-05-19 18:01:00,
2013-05-19 14:06:00,58.1,51.6,30.24,NE,35,0.0,4.0,79,0.00,,,0.00,WeatherCatV1.15B25,2013-05-19 18:06:00,
2013-05-19 14:11:00,57.6,51.1,30.24,NE,38,0.0,6.0,79,0.00,,,0.00,WeatherCatV1.15B25,2013-05-19 18:11:00,
2013-05-19 14:16:00,57.0,50.9,30.24,North,7,2.0,4.0,80,0.00,,,0.00,WeatherCatV1.15B25,2013-05-19 18:16:00,
2013-05-19 14:21:00,56.6,50.8,30.24,ENE,60,0.0,3.0,81,0.00,,,0.00,WeatherCatV1.15B25,2013-05-19 18:21:00,
2013-05-19 14:26:00,56.2,50.8,30.23,ENE,70,2.0,4.0,82,0.00,,,0.00,WeatherCatV1.15B25,2013-05-19 18:26:00,
2013-05-19 14:31:00,56.2,50.8,30.23,East,100,2.0,3.0,82,0.00,,,0.00,WeatherCatV1.15B25,2013-05-19 18:31:00,
2013-05-19 14:36:00,56.1,51.0,30.23,ESE,103,3.0,3.0,83,0.00,,,0.00,WeatherCatV1.15B25,2013-05-19 18:36:00,
2013-05-19 14:41:00,56.0,50.9,30.23,SE,140,2.0,7.0,83,0.00,,,0.00,WeatherCatV1.15B25,2013-05-19 18:41:00,
2013-05-19 14:46:00,55.9,50.8,30.23,North,2,0.0,4.0,83,0.00,,,0.00,WeatherCatV1.15B25,2013-05-19 18:46:00,
2013-05-19 14:51:00,55.8,51.0,30.23,NE,47,0.0,1.0,84,0.00,,,0.00,WeatherCatV1.15B25,2013-05-19 18:51:00,
2013-05-19 14:56:00,55.8,50.7,30.23,NNE,13,3.0,3.0,83,0.00,,,0.00,WeatherCatV1.15B25,2013-05-19 18:56:00,
2013-05-19 15:01:00,55.9,50.8,30.23,ESE,115,1.0,4.0,83,0.00,,,0.00,WeatherCatV1.15B25,2013-05-19 19:01:00,
2013-05-19 15:06:00,55.7,50.9,30.23,SE,138,1.0,2.0,84,0.00,,,0.00,WeatherCatV1.15B25,2013-05-19 19:06:00,
2013-05-19 15:11:00,55.6,50.8,30.23,East,100,0.0,3.0,84,0.00,,,0.00,WeatherCatV1.15B25,2013-05-19 19:11:00,
2013-05-19 15:16:00,55.4,50.6,30.23,East,84,1.0,6.0,84,0.00,,,0.00,WeatherCatV1.15B25,2013-05-19 19:16:00,
2013-05-19 15:21:00,55.2,50.8,30.23,ESE,109,1.0,3.0,85,0.00,,,0.00,WeatherCatV1.15B25,2013-05-19 19:21:00,
2013-05-19 15:26:00,55.1,51.0,30.23,NE,37,0.0,1.0,86,0.00,,,0.00,WeatherCatV1.15B25,2013-05-19 19:26:00,
2013-05-19 15:31:00,55.3,51.2,30.23,NNE,15,0.0,1.0,86,0.00,,,0.00,WeatherCatV1.15B25,2013-05-19 19:31:00,
2013-05-19 15:36:00,55.3,50.9,30.23,NNE,26,4.0,6.0,85,0.00,,,0.00,WeatherCatV1.15B25,2013-05-19 19:36:00,
2013-05-19 15:41:00,55.1,50.7,30.23,NE,36,1.0,5.0,85,0.00,,,0.00,WeatherCatV1.15B25,2013-05-19 19:41:00,
2013-05-19 15:46:00,55.1,50.7,30.23,NNE,26,3.0,5.0,85,0.00,,,0.00,WeatherCatV1.15B25,2013-05-19 19:46:00,
2013-05-19 15:51:00,55.1,50.7,30.23,NE,43,0.0,1.0,85,0.00,,,0.00,WeatherCatV1.15B25,2013-05-19 19:51:00,
2013-05-19 15:56:00,55.3,50.9,30.23,East,80,0.0,2.0,85,0.00,,,0.00,WeatherCatV1.15B25,2013-05-19 19:56:00,
2013-05-19 16:01:00,55.0,50.6,30.23,NNE,26,1.0,6.0,85,0.00,,,0.00,WeatherCatV1.15B25,2013-05-19 20:01:00,
2013-05-19 16:06:00,54.8,50.4,30.23,NNE,24,0.0,2.0,85,0.00,,,0.00,WeatherCatV1.15B25,2013-05-19 20:06:00,
2013-05-19 16:11:00,54.8,50.7,30.23,NNE,21,0.0,2.0,86,0.00,,,0.00,WeatherCatV1.15B25,2013-05-19 20:11:00,
2013-05-19 16:16:00,55.0,50.6,30.23,NNE,13,1.0,4.0,85,0.00,,,0.00,WeatherCatV1.15B25,2013-05-19 20:16:00,
2013-05-19 16:21:00,55.0,50.6,30.23,East,86,0.0,3.0,85,0.00,,,0.00,WeatherCatV1.15B25,2013-05-19 20:21:00,
2013-05-19 16:26:00,54.9,50.8,30.23,NE,47,1.0,1.0,86,0.00,,,0.00,WeatherCatV1.15B25,2013-05-19 20:26:00,
2013-05-19 16:31:00,54.8,50.7,30.23,ESE,122,0.0,4.0,86,0.00,,,0.00,WeatherCatV1.15B25,2013-05-19 20:31:00,
2013-05-19 16:36:00,54.8,50.7,30.23,NNE,24,0.0,3.0,86,0.00,,,0.00,WeatherCatV1.15B25,2013-05-19 20:36:00,
2013-05-19 16:41:00,54.9,50.8,30.23,NNE,24,0.0,2.0,86,0.00,,,0.00,WeatherCatV1.15B25,2013-05-19 20:41:00,
2013-05-19 16:46:00,55.0,50.9,30.23,NNE,24,0.0,1.0,86,0.00,,,0.00,WeatherCatV1.15B25,2013-05-19 20:46:00,
2013-05-19 16:51:00,55.0,50.9,30.23,ESE,118,0.0,1.0,86,0.00,,,0.00,WeatherCatV1.15B25,2013-05-19 20:51:00,
2013-05-19 16:56:00,54.8,51.0,30.23,East,81,0.0,0.0,87,0.00,,,0.00,WeatherCatV1.15B25,2013-05-19 20:56:00,
2013-05-19 17:01:00,54.8,51.0,30.23,NNE,14,0.0,1.0,87,0.00,,,0.00,WeatherCatV1.15B25,2013-05-19 21:01:00,
2013-05-19 17:06:00,55.0,50.9,30.23,NNE,19,1.0,2.0,86,0.00,,,0.00,WeatherCatV1.15B25,2013-05-19 21:06:00,
2013-05-19 17:11:00,55.1,51.0,30.22,NNE,26,0.0,2.0,86,0.00,,,0.00,WeatherCatV1.15B25,2013-05-19 21:11:00,
2013-05-19 17:16:00,55.0,50.9,30.22,NNE,17,1.0,4.0,86,0.00,,,0.00,WeatherCatV1.15B25,2013-05-19 21:16:00,
2013-05-19 17:21:00,54.9,50.8,30.22,NNE,26,0.0,2.0,86,0.00,,,0.00,WeatherCatV1.15B25,2013-05-19 21:21:00,
2013-05-19 17:26:00,54.8,51.0,30.22,NE,48,0.0,0.0,87,0.00,,,0.00,WeatherCatV1.15B25,2013-05-19 21:26:00,
2013-05-19 17:31:00,54.8,51.0,30.22,NNE,17,0.0,3.0,87,0.00,,,0.00,WeatherCatV1.15B25,2013-05-19 21:31:00,
2013-05-19 17:36:00,54.7,50.9,30.22,NNE,32,0.0,1.0,87,0.00,,,0.00,WeatherCatV1.15B25,2013-05-19 21:36:00,
2013-05-19 17:41:00,54.7,50.9,30.23,NNE,21,1.0,1.0,87,0.00,,,0.00,WeatherCatV1.15B25,2013-05-19 21:41:00,
2013-05-19 17:46:00,54.7,50.9,30.22,NNE,30,0.0,1.0,87,0.00,,,0.00,WeatherCatV1.15B25,2013-05-19 21:46:00,
2013-05-19 17:51:00,54.6,50.8,30.22,NNE,30,0.0,0.0,87,0.00,,,0.00,WeatherCatV1.15B25,2013-05-19 21:51:00,
2013-05-19 17:56:00,54.6,50.8,30.22,NNE,30,0.0,0.0,87,0.00,,,0.00,WeatherCatV1.15B25,2013-05-19 21:56:00,
2013-05-19 18:01:00,54.6,50.8,30.22,NNE,30,0.0,1.0,87,0.00,,,0.00,WeatherCatV1.15B25,2013-05-19 22:01:00,
2013-05-19 18:06:00,54.4,50.9,30.22,NE,55,0.0,1.0,88,0.00,,,0.00,WeatherCatV1.15B25,2013-05-19 22:06:00,
2013-05-19 18:11:00,54.3,50.8,30.22,NE,55,0.0,0.0,88,0.00,,,0.00,WeatherCatV1.15B25,2013-05-19 22:11:00,
2013-05-19 18:16:00,54.2,51.0,30.22,NE,55,0.0,0.0,89,0.00,,,0.00,WeatherCatV1.15B25,2013-05-19 22:16:00,
2013-05-19 18:21:00,54.2,51.0,30.22,NE,55,0.0,0.0,89,0.00,,,0.00,WeatherCatV1.15B25,2013-05-19 22:21:00,
2013-05-19 18:26:00,54.4,51.2,30.23,NE,55,0.0,0.0,89,0.00,,,0.00,WeatherCatV1.15B25,2013-05-19 22:26:00,
2013-05-19 18:31:00,54.4,51.2,30.23,NE,55,0.0,0.0,89,0.00,,,0.00,WeatherCatV1.15B25,2013-05-19 22:31:00,
2013-05-19 18:36:00,54.5,51.6,30.23,NE,55,0.0,0.0,90,0.00,,,0.00,WeatherCatV1.15B25,2013-05-19 22:36:00,
2013-05-19 18:41:00,54.6,51.7,30.23,NE,55,0.0,0.0,90,0.00,,,0.00,WeatherCatV1.15B25,2013-05-19 22:41:00,
2013-05-19 18:46:00,54.6,52.0,30.23,NE,55,0.0,0.0,91,0.00,,,0.00,WeatherCatV1.15B25,2013-05-19 22:46:00,
2013-05-19 18:52:00,54.7,52.1,30.22,NE,55,0.0,0.0,91,0.00,,,0.00,WeatherCatV1.15B25,2013-05-19 22:52:00,
2013-05-19 18:57:00,54.6,52.3,30.22,NE,55,0.0,0.0,92,0.00,,,0.00,WeatherCatV1.15B25,2013-05-19 22:57:00,
2013-05-19 19:02:00,54.6,52.3,30.22,NE,55,0.0,0.0,92,0.00,,,0.00,WeatherCatV1.15B25,2013-05-19 23:02:00,
2013-05-19 19:07:00,54.6,52.3,30.23,NE,55,0.0,0.0,92,0.00,,,0.00,WeatherCatV1.15B25,2013-05-19 23:07:00,
2013-05-19 19:12:00,54.5,52.2,30.22,NE,55,0.0,0.0,92,0.00,,,0.00,WeatherCatV1.15B25,2013-05-19 23:12:00,
2013-05-19 19:17:00,54.6,52.6,30.22,NE,55,0.0,0.0,93,0.00,,,0.00,WeatherCatV1.15B25,2013-05-19 23:17:00,
2013-05-19 19:22:00,54.6,52.6,30.22,NE,55,0.0,0.0,93,0.00,,,0.00,WeatherCatV1.15B25,2013-05-19 23:22:00,
2013-05-19 19:27:00,54.7,52.7,30.22,NE,56,0.0,1.0,93,0.00,,,0.00,WeatherCatV1.15B25,2013-05-19 23:27:00,
2013-05-19 19:32:00,54.9,52.9,30.22,ESE,119,0.0,1.0,93,0.00,,,0.00,WeatherCatV1.15B25,2013-05-19 23:32:00,
2013-05-19 19:37:00,55.2,52.9,30.21,SSE,150,0.0,0.0,92,0.00,,,0.00,WeatherCatV1.15B25,2013-05-19 23:37:00,
2013-05-19 19:42:00,55.4,53.1,30.21,SSE,150,0.0,0.0,92,0.00,,,0.00,WeatherCatV1.15B25,2013-05-19 23:42:00,
2013-05-19 19:47:00,55.6,53.3,30.22,SSE,150,0.0,0.0,92,0.00,,,0.00,WeatherCatV1.15B25,2013-05-19 23:47:00,
2013-05-19 19:52:00,55.6,53.3,30.22,SSE,150,0.0,0.0,92,0.00,,,0.00,WeatherCatV1.15B25,2013-05-19 23:52:00,
2013-05-19 19:57:00,55.6,53.3,30.22,SSE,153,0.0,0.0,92,0.00,,,0.00,WeatherCatV1.15B25,2013-05-19 23:57:00,
2013-05-19 20:02:00,55.6,53.3,30.22,WNW,284,0.0,4.0,92,0.00,,,0.01,WeatherCatV1.15B25,2013-05-20 00:02:00,
2013-05-19 20:07:00,55.6,53.0,30.22,SW,221,0.0,0.0,91,0.00,,,0.01,WeatherCatV1.15B25,2013-05-20 00:07:00,
2013-05-19 20:12:00,55.6,53.0,30.22,SW,221,0.0,1.0,91,0.00,,,0.01,WeatherCatV1.15B25,2013-05-20 00:12:00,
2013-05-19 20:17:00,55.6,53.3,30.21,WSW,249,0.0,2.0,92,0.00,,,0.01,WeatherCatV1.15B25,2013-05-20 00:17:00,
2013-05-19 20:22:00,55.6,53.3,30.22,WSW,249,0.0,0.0,92,0.00,,,0.01,WeatherCatV1.15B25,2013-05-20 00:22:00,
2013-05-19 20:27:00,55.6,53.3,30.22,WSW,249,0.0,0.0,92,0.00,,,0.01,WeatherCatV1.15B25,2013-05-20 00:27:00,
2013-05-19 20:32:00,55.6,53.3,30.22,WSW,249,0.0,0.0,92,0.00,,,0.01,WeatherCatV1.15B25,2013-05-20 00:32:00,
2013-05-19 20:37:00,55.6,53.3,30.21,WSW,249,0.0,0.0,92,0.00,,,0.01,WeatherCatV1.15B25,2013-05-20 00:37:00,
2013-05-19 20:42:00,55.5,53.5,30.21,WSW,249,0.0,0.0,93,0.00,,,0.01,WeatherCatV1.15B25,2013-05-20 00:42:00,
2013-05-19 20:47:00,55.5,53.5,30.22,WSW,244,0.0,0.0,93,0.00,,,0.01,WeatherCatV1.15B25,2013-05-20 00:47:00,
2013-05-19 20:52:00,55.5,53.5,30.21,WSW,242,0.0,1.0,93,0.00,,,0.01,WeatherCatV1.15B25,2013-05-20 00:52:00,
2013-05-19 20:57:00,55.5,53.5,30.21,South,178,0.0,1.0,93,0.00,,,0.01,WeatherCatV1.15B25,2013-05-20 00:57:00,
2013-05-19 21:02:00,55.4,53.4,30.21,South,190,0.0,1.0,93,0.00,,,0.01,WeatherCatV1.15B25,2013-05-20 01:02:00,
2013-05-19 21:07:00,55.4,53.7,30.21,East,82,1.0,2.0,94,0.00,,,0.01,WeatherCatV1.15B25,2013-05-20 01:07:00,
2013-05-19 21:12:00,55.3,53.6,30.21,SE,137,0.0,0.0,94,0.00,,,0.01,WeatherCatV1.15B25,2013-05-20 01:12:00,
2013-05-19 21:17:00,55.3,53.6,30.21,SE,137,0.0,1.0,94,0.00,,,0.01,WeatherCatV1.15B25,2013-05-20 01:17:00,
2013-05-19 21:22:00,55.2,53.5,30.21,SE,137,0.0,0.0,94,0.00,,,0.02,WeatherCatV1.15B25,2013-05-20 01:22:00,
2013-05-19 21:27:00,55.2,53.5,30.21,South,176,4.0,4.0,94,0.00,,,0.02,WeatherCatV1.15B25,2013-05-20 01:27:00,
2013-05-19 21:32:00,55.1,53.4,30.21,SSE,150,0.0,2.0,94,0.00,,,0.02,WeatherCatV1.15B25,2013-05-20 01:32:00,
2013-05-19 21:37:00,55.1,53.4,30.20,SSE,150,0.0,1.0,94,0.00,,,0.02,WeatherCatV1.15B25,2013-05-20 01:37:00,
2013-05-19 21:42:00,55.1,53.4,30.20,SSE,150,0.0,0.0,94,0.00,,,0.02,WeatherCatV1.15B25,2013-05-20 01:42:00,
2013-05-19 21:47:00,55.1,53.4,30.20,South,169,0.0,2.0,94,0.00,,,0.02,WeatherCatV1.15B25,2013-05-20 01:47:00,
2013-05-19 21:52:00,55.1,53.4,30.20,SE,137,0.0,3.0,94,0.00,,,0.02,WeatherCatV1.15B25,2013-05-20 01:52:00,
2013-05-19 21:57:00,55.1,53.4,30.20,SE,137,1.0,1.0,94,0.00,,,0.02,WeatherCatV1.15B25,2013-05-20 01:57:00,
2013-05-19 22:02:00,55.1,53.7,30.21,SE,143,0.0,1.0,95,0.00,,,0.02,WeatherCatV1.15B25,2013-05-20 02:02:00,
2013-05-19 22:07:00,55.1,53.7,30.21,SSE,158,0.0,0.0,95,0.00,,,0.02,WeatherCatV1.15B25,2013-05-20 02:07:00,
2013-05-19 22:12:00,55.1,53.7,30.21,SSE,158,0.0,0.0,95,0.00,,,0.02,WeatherCatV1.15B25,2013-05-20 02:12:00,
2013-05-19 22:17:00,55.2,53.8,30.20,SSE,158,0.0,2.0,95,0.00,,,0.02,WeatherCatV1.15B25,2013-05-20 02:17:00,
2013-05-19 22:22:00,55.1,53.7,30.20,SSE,153,0.0,1.0,95,0.00,,,0.02,WeatherCatV1.15B25,2013-05-20 02:22:00,
2013-05-19 22:27:00,55.1,53.7,30.20,SSE,152,0.0,2.0,95,0.00,,,0.02,WeatherCatV1.15B25,2013-05-20 02:27:00,
2013-05-19 22:32:00,55.1,53.7,30.20,SSE,155,0.0,0.0,95,0.00,,,0.02,WeatherCatV1.15B25,2013-05-20 02:32:00,
2013-05-19 22:37:00,55.0,53.6,30.20,SSE,154,0.0,0.0,95,0.00,,,0.02,WeatherCatV1.15B25,2013-05-20 02:37:00,
2013-05-19 22:42:00,55.0,53.6,30.20,SSE,154,1.0,1.0,95,0.00,,,0.02,WeatherCatV1.15B25,2013-05-20 02:42:00,
2013-05-19 22:47:00,54.9,53.5,30.19,SSE,159,0.0,2.0,95,0.00,,,0.02,WeatherCatV1.15B25,2013-05-20 02:47:00,
2013-05-19 22:52:00,54.9,53.5,30.19,SSE,164,0.0,1.0,95,0.00,,,0.02,WeatherCatV1.15B25,2013-05-20 02:52:00,
2013-05-19 22:57:00,54.9,53.5,30.19,South,180,0.0,1.0,95,0.00,,,0.02,WeatherCatV1.15B25,2013-05-20 02:57:00,
2013-05-19 23:02:00,54.9,53.5,30.18,South,180,0.0,0.0,95,0.00,,,0.02,WeatherCatV1.15B25,2013-05-20 03:02:00,
2013-05-19 23:07:00,54.9,53.5,30.18,North,357,0.0,1.0,95,0.00,,,0.02,WeatherCatV1.15B25,2013-05-20 03:07:00,
2013-05-19 23:12:00,54.9,53.5,30.18,SSE,155,0.0,2.0,95,0.00,,,0.02,WeatherCatV1.15B25,2013-05-20 03:12:00,
2013-05-19 23:17:00,54.9,53.5,30.18,SSE,163,0.0,2.0,95,0.00,,,0.02,WeatherCatV1.15B25,2013-05-20 03:17:00,
2013-05-19 23:22:00,54.9,53.5,30.18,SE,127,0.0,1.0,95,0.00,,,0.02,WeatherCatV1.15B25,2013-05-20 03:22:00,
2013-05-19 23:27:00,54.9,53.5,30.18,SE,146,0.0,1.0,95,0.00,,,0.02,WeatherCatV1.15B25,2013-05-20 03:27:00,
2013-05-19 23:32:00,55.0,53.6,30.18,SE,146,0.0,0.0,95,0.00,,,0.02,WeatherCatV1.15B25,2013-05-20 03:32:00,
2013-05-19 23:37:00,55.0,53.6,30.18,SE,146,0.0,1.0,95,0.00,,,0.02,WeatherCatV1.15B25,2013-05-20 03:37:00,
2013-05-19 23:42:00,55.0,53.6,30.18,SE,146,0.0,1.0,95,0.00,,,0.02,WeatherCatV1.15B25,2013-05-20 03:42:00,
2013-05-19 23:47:00,54.9,53.5,30.17,South,171,1.0,1.0,95,0.00,,,0.02,WeatherCatV1.15B25,2013-05-20 03:47:00,
2013-05-19 23:52:00,54.9,53.5,30.17,SE,142,0.0,1.0,95,0.00,,,0.02,WeatherCatV1.15B25,2013-05-20 03:52:00,
2013-05-19 23:57:00,54.9,53.5,30.17,SSE,155,1.0,1.0,95,0.00,,,0.02,WeatherCatV1.15B25,2013-05-20 03:57:00,